owner,sensor,date,latitude,longitude,vertical_datum,mass_concentration_of_oxygen_in_sea_water,qcFlag 
DISL,ioos:station:DISL:CATA:1,2015-08-01T00:00:00Z,30.3085,-88.1395,2.059,6.99,1111122 
DISL,ioos:station:DISL:CATA:1,2015-08-01T00:30:00Z,30.3085,-88.1395,2.091,7.27,1111122 
DISL,ioos:station:DISL:CATA:1,2015-08-01T01:00:00Z,30.3085,-88.1395,2.033,8.21,1111122 
DISL,ioos:station:DISL:CATA:1,2015-08-01T01:30:00Z,30.3085,-88.1395,2.02,8.06,1111122 
DISL,ioos:station:DISL:CATA:1,2015-08-01T02:00:00Z,30.3085,-88.1395,2.014,7.92,1111122 
DISL,ioos:station:DISL:CATA:1,2015-08-01T02:30:00Z,30.3085,-88.1395,2.032,7.65,1111122 
DISL,ioos:station:DISL:CATA:1,2015-08-01T03:00:00Z,30.3085,-88.1395,2.033,7.44,1111122 
DISL,ioos:station:DISL:CATA:1,2015-08-01T03:30:00Z,30.3085,-88.1395,2.028,7.43,1111122 
DISL,ioos:station:DISL:CATA:1,2015-08-01T04:00:00Z,30.3085,-88.1395,2.037,7.45,1111122 
DISL,ioos:station:DISL:CATA:1,2015-08-01T04:30:00Z,30.3085,-88.1395,2.049,7.26,1111122 
DISL,ioos:station:DISL:CATA:1,2015-08-01T05:00:00Z,30.3085,-88.1395,2.065,6.96,1111122 
DISL,ioos:station:DISL:CATA:1,2015-08-01T05:30:00Z,30.3085,-88.1395,2.102,6.07,1111122 
DISL,ioos:station:DISL:CATA:1,2015-08-01T06:00:00Z,30.3085,-88.1395,2.123,6.42,1111122 
DISL,ioos:station:DISL:CATA:1,2015-08-01T06:30:00Z,30.3085,-88.1395,2.136,6.19,1111122 
DISL,ioos:station:DISL:CATA:1,2015-08-01T07:00:00Z,30.3085,-88.1395,2.159,6.67,1111122 
DISL,ioos:station:DISL:CATA:1,2015-08-01T07:30:00Z,30.3085,-88.1395,2.186,6.62,1111122 
DISL,ioos:station:DISL:CATA:1,2015-08-01T08:00:00Z,30.3085,-88.1395,2.21,6.61,1111122 
DISL,ioos:station:DISL:CATA:1,2015-08-01T08:30:00Z,30.3085,-88.1395,2.23,6.6,1111122 
DISL,ioos:station:DISL:CATA:1,2015-08-01T09:00:00Z,30.3085,-88.1395,2.238,6.2,1111122 
DISL,ioos:station:DISL:CATA:1,2015-08-01T09:30:00Z,30.3085,-88.1395,2.252,6.1,1111122 
DISL,ioos:station:DISL:CATA:1,2015-08-01T10:00:00Z,30.3085,-88.1395,2.264,6.33,1111122 
DISL,ioos:station:DISL:CATA:1,2015-08-01T10:30:00Z,30.3085,-88.1395,2.292,6.22,1111122 
DISL,ioos:station:DISL:CATA:1,2015-08-01T11:00:00Z,30.3085,-88.1395,2.308,6.14,1111122 
DISL,ioos:station:DISL:CATA:1,2015-08-01T11:30:00Z,30.3085,-88.1395,2.33,5.86,1111122 
DISL,ioos:station:DISL:CATA:1,2015-08-01T12:00:00Z,30.3085,-88.1395,2.34,5.73,1111122 
DISL,ioos:station:DISL:CATA:1,2015-08-01T12:30:00Z,30.3085,-88.1395,2.368,5.18,1111122 
DISL,ioos:station:DISL:CATA:1,2015-08-01T13:00:00Z,30.3085,-88.1395,2.403,5.22,1111122 
DISL,ioos:station:DISL:CATA:1,2015-08-01T13:30:00Z,30.3085,-88.1395,2.435,5.21,1111122 
DISL,ioos:station:DISL:CATA:1,2015-08-01T14:00:00Z,30.3085,-88.1395,2.463,5.35,1111122 
DISL,ioos:station:DISL:CATA:1,2015-08-01T14:30:00Z,30.3085,-88.1395,2.481,5.36,1111122 
DISL,ioos:station:DISL:CATA:1,2015-08-01T15:00:00Z,30.3085,-88.1395,2.51,5.64,1111122 
DISL,ioos:station:DISL:CATA:1,2015-08-01T15:30:00Z,30.3085,-88.1395,2.522,6.2,1111122 
DISL,ioos:station:DISL:CATA:1,2015-08-01T16:00:00Z,30.3085,-88.1395,2.528,5.83,1111122 
DISL,ioos:station:DISL:CATA:1,2015-08-01T16:30:00Z,30.3085,-88.1395,2.539,6.44,1111122 
DISL,ioos:station:DISL:CATA:1,2015-08-01T17:00:00Z,30.3085,-88.1395,2.55,6.92,1111122 
DISL,ioos:station:DISL:CATA:1,2015-08-01T17:30:00Z,30.3085,-88.1395,2.561,6.96,1111122 
DISL,ioos:station:DISL:CATA:1,2015-08-01T18:00:00Z,30.3085,-88.1395,2.54,7.33,1111122 
DISL,ioos:station:DISL:CATA:1,2015-08-01T18:30:00Z,30.3085,-88.1395,2.536,7.16,1111122 
DISL,ioos:station:DISL:CATA:1,2015-08-01T19:00:00Z,30.3085,-88.1395,2.501,7.18,1111122 
DISL,ioos:station:DISL:CATA:1,2015-08-01T19:30:00Z,30.3085,-88.1395,2.485,7.43,1111122 
DISL,ioos:station:DISL:CATA:1,2015-08-01T20:00:00Z,30.3085,-88.1395,2.455,6.35,1111122 
DISL,ioos:station:DISL:CATA:1,2015-08-01T20:30:00Z,30.3085,-88.1395,2.429,6.98,1111122 
DISL,ioos:station:DISL:CATA:1,2015-08-01T21:00:00Z,30.3085,-88.1395,2.379,7.24,1111122 
DISL,ioos:station:DISL:CATA:1,2015-08-01T21:30:00Z,30.3085,-88.1395,2.352,8.57,1111122 
DISL,ioos:station:DISL:CATA:1,2015-08-01T22:00:00Z,30.3085,-88.1395,2.294,8.68,1111122 
DISL,ioos:station:DISL:CATA:1,2015-08-01T22:30:00Z,30.3085,-88.1395,2.258,8.86,1111122 
DISL,ioos:station:DISL:CATA:1,2015-08-01T23:00:00Z,30.3085,-88.1395,2.22,8.83,1111122 
DISL,ioos:station:DISL:CATA:1,2015-08-01T23:30:00Z,30.3085,-88.1395,2.174,8.43,1111122 
DISL,ioos:station:DISL:CATA:1,2015-08-02T00:00:00Z,30.3085,-88.1395,2.138,8.28,1111122 
DISL,ioos:station:DISL:CATA:1,2015-08-02T00:30:00Z,30.3085,-88.1395,2.106,7.97,1111122 
DISL,ioos:station:DISL:CATA:1,2015-08-02T01:00:00Z,30.3085,-88.1395,2.098,7.66,1111122 
DISL,ioos:station:DISL:CATA:1,2015-08-02T01:30:00Z,30.3085,-88.1395,2.092,7.5,1111122 
DISL,ioos:station:DISL:CATA:1,2015-08-02T02:00:00Z,30.3085,-88.1395,2.08,7.35,1111122 
DISL,ioos:station:DISL:CATA:1,2015-08-02T02:30:00Z,30.3085,-88.1395,2.071,7.12,1111122 
DISL,ioos:station:DISL:CATA:1,2015-08-02T03:00:00Z,30.3085,-88.1395,2.074,6.81,1111122 
DISL,ioos:station:DISL:CATA:1,2015-08-02T03:30:00Z,30.3085,-88.1395,2.085,6.6,1111122 
DISL,ioos:station:DISL:CATA:1,2015-08-02T04:00:00Z,30.3085,-88.1395,2.079,6.47,1111122 
DISL,ioos:station:DISL:CATA:1,2015-08-02T04:30:00Z,30.3085,-88.1395,2.094,6.43,1111122 
DISL,ioos:station:DISL:CATA:1,2015-08-02T05:00:00Z,30.3085,-88.1395,2.104,6.32,1111122 
DISL,ioos:station:DISL:CATA:1,2015-08-02T05:30:00Z,30.3085,-88.1395,2.119,5.31,1111122 
DISL,ioos:station:DISL:CATA:1,2015-08-02T06:00:00Z,30.3085,-88.1395,2.143,5.87,1111122 
DISL,ioos:station:DISL:CATA:1,2015-08-02T06:30:00Z,30.3085,-88.1395,2.154,5.91,1111122 
DISL,ioos:station:DISL:CATA:1,2015-08-02T07:00:00Z,30.3085,-88.1395,2.182,6.0,1111122 
DISL,ioos:station:DISL:CATA:1,2015-08-02T07:30:00Z,30.3085,-88.1395,2.189,5.94,1111122 
DISL,ioos:station:DISL:CATA:1,2015-08-02T08:00:00Z,30.3085,-88.1395,2.211,6.15,1111122 
DISL,ioos:station:DISL:CATA:1,2015-08-02T08:30:00Z,30.3085,-88.1395,2.228,6.04,1111122 
DISL,ioos:station:DISL:CATA:1,2015-08-02T09:00:00Z,30.3085,-88.1395,2.241,5.65,1111122 
DISL,ioos:station:DISL:CATA:1,2015-08-02T09:30:00Z,30.3085,-88.1395,2.257,5.72,1111122 
DISL,ioos:station:DISL:CATA:1,2015-08-02T10:00:00Z,30.3085,-88.1395,2.259,6.01,1111122 
DISL,ioos:station:DISL:CATA:1,2015-08-02T10:30:00Z,30.3085,-88.1395,2.268,6.01,1111122 
DISL,ioos:station:DISL:CATA:1,2015-08-02T11:00:00Z,30.3085,-88.1395,2.277,6.27,1111122 
DISL,ioos:station:DISL:CATA:1,2015-08-02T11:30:00Z,30.3085,-88.1395,2.287,5.96,1111122 
DISL,ioos:station:DISL:CATA:1,2015-08-02T12:00:00Z,30.3085,-88.1395,2.306,5.85,1111122 
DISL,ioos:station:DISL:CATA:1,2015-08-02T12:30:00Z,30.3085,-88.1395,2.338,5.63,1111122 
DISL,ioos:station:DISL:CATA:1,2015-08-02T13:00:00Z,30.3085,-88.1395,2.388,5.43,1111122 
DISL,ioos:station:DISL:CATA:1,2015-08-02T13:30:00Z,30.3085,-88.1395,2.397,5.67,1111122 
DISL,ioos:station:DISL:CATA:1,2015-08-02T14:00:00Z,30.3085,-88.1395,2.42,5.69,1111122 
DISL,ioos:station:DISL:CATA:1,2015-08-02T14:30:00Z,30.3085,-88.1395,2.434,5.68,1111122 
DISL,ioos:station:DISL:CATA:1,2015-08-02T15:00:00Z,30.3085,-88.1395,2.448,5.93,1111122 
DISL,ioos:station:DISL:CATA:1,2015-08-02T15:30:00Z,30.3085,-88.1395,2.473,6.33,1111122 
DISL,ioos:station:DISL:CATA:1,2015-08-02T16:00:00Z,30.3085,-88.1395,2.499,6.53,1111122 
DISL,ioos:station:DISL:CATA:1,2015-08-02T16:30:00Z,30.3085,-88.1395,2.503,6.68,1111122 
DISL,ioos:station:DISL:CATA:1,2015-08-02T17:00:00Z,30.3085,-88.1395,2.518,6.85,1111122 
DISL,ioos:station:DISL:CATA:1,2015-08-02T17:30:00Z,30.3085,-88.1395,2.52,7.23,1111122 
DISL,ioos:station:DISL:CATA:1,2015-08-02T18:00:00Z,30.3085,-88.1395,2.529,7.44,1111122 
DISL,ioos:station:DISL:CATA:1,2015-08-02T18:30:00Z,30.3085,-88.1395,2.528,7.58,1111122 
DISL,ioos:station:DISL:CATA:1,2015-08-02T19:00:00Z,30.3085,-88.1395,2.527,7.7,1111122 
DISL,ioos:station:DISL:CATA:1,2015-08-02T19:30:00Z,30.3085,-88.1395,2.509,7.68,1111122 
DISL,ioos:station:DISL:CATA:1,2015-08-02T20:00:00Z,30.3085,-88.1395,2.505,6.49,1111122 
DISL,ioos:station:DISL:CATA:1,2015-08-02T20:30:00Z,30.3085,-88.1395,2.486,7.35,1111122 
DISL,ioos:station:DISL:CATA:1,2015-08-02T21:00:00Z,30.3085,-88.1395,2.472,7.05,1111122 
DISL,ioos:station:DISL:CATA:1,2015-08-02T21:30:00Z,30.3085,-88.1395,2.44,6.0,1111122 
DISL,ioos:station:DISL:CATA:1,2015-08-02T22:00:00Z,30.3085,-88.1395,2.409,7.16,1111122 
DISL,ioos:station:DISL:CATA:1,2015-08-02T22:30:00Z,30.3085,-88.1395,2.372,7.3,1111122 
DISL,ioos:station:DISL:CATA:1,2015-08-02T23:00:00Z,30.3085,-88.1395,2.331,7.69,1111122 
DISL,ioos:station:DISL:CATA:1,2015-08-02T23:30:00Z,30.3085,-88.1395,2.296,7.22,1111122 
DISL,ioos:station:DISL:CATA:1,2015-08-03T00:00:00Z,30.3085,-88.1395,2.266,7.05,1111122 
DISL,ioos:station:DISL:CATA:1,2015-08-03T00:30:00Z,30.3085,-88.1395,2.24,6.31,1111122 
DISL,ioos:station:DISL:CATA:1,2015-08-03T01:00:00Z,30.3085,-88.1395,2.224,5.4,1111122 
DISL,ioos:station:DISL:CATA:1,2015-08-03T01:30:00Z,30.3085,-88.1395,2.211,5.04,1111122 
DISL,ioos:station:DISL:CATA:1,2015-08-03T02:00:00Z,30.3085,-88.1395,2.208,4.85,1111122 
DISL,ioos:station:DISL:CATA:1,2015-08-03T02:30:00Z,30.3085,-88.1395,2.208,4.71,1111122 
DISL,ioos:station:DISL:CATA:1,2015-08-03T03:00:00Z,30.3085,-88.1395,2.208,4.25,1111122 
DISL,ioos:station:DISL:CATA:1,2015-08-03T03:30:00Z,30.3085,-88.1395,2.217,3.77,1111122 
DISL,ioos:station:DISL:CATA:1,2015-08-03T04:00:00Z,30.3085,-88.1395,2.224,5.29,1111122 
DISL,ioos:station:DISL:CATA:1,2015-08-03T04:30:00Z,30.3085,-88.1395,2.231,5.21,1111122 
DISL,ioos:station:DISL:CATA:1,2015-08-03T05:00:00Z,30.3085,-88.1395,2.218,5.41,1111122 
DISL,ioos:station:DISL:CATA:1,2015-08-03T05:30:00Z,30.3085,-88.1395,2.217,5.21,1111122 
DISL,ioos:station:DISL:CATA:1,2015-08-03T06:00:00Z,30.3085,-88.1395,2.227,6.42,1111122 
DISL,ioos:station:DISL:CATA:1,2015-08-03T06:30:00Z,30.3085,-88.1395,2.224,6.39,1111122 
DISL,ioos:station:DISL:CATA:1,2015-08-03T07:00:00Z,30.3085,-88.1395,2.235,6.37,1111122 
DISL,ioos:station:DISL:CATA:1,2015-08-03T07:30:00Z,30.3085,-88.1395,2.254,6.22,1111122 
DISL,ioos:station:DISL:CATA:1,2015-08-03T08:00:00Z,30.3085,-88.1395,2.276,6.53,1111122 
DISL,ioos:station:DISL:CATA:1,2015-08-03T08:30:00Z,30.3085,-88.1395,2.284,6.22,1111122 
DISL,ioos:station:DISL:CATA:1,2015-08-03T09:00:00Z,30.3085,-88.1395,2.294,6.18,1111122 
DISL,ioos:station:DISL:CATA:1,2015-08-03T09:30:00Z,30.3085,-88.1395,2.296,6.42,1111122 
DISL,ioos:station:DISL:CATA:1,2015-08-03T10:00:00Z,30.3085,-88.1395,2.29,6.32,1111122 
DISL,ioos:station:DISL:CATA:1,2015-08-03T10:30:00Z,30.3085,-88.1395,2.288,5.97,1111122 
DISL,ioos:station:DISL:CATA:1,2015-08-03T11:00:00Z,30.3085,-88.1395,2.282,6.09,1111122 
DISL,ioos:station:DISL:CATA:1,2015-08-03T11:30:00Z,30.3085,-88.1395,2.282,6.04,1111122 
DISL,ioos:station:DISL:CATA:1,2015-08-03T12:00:00Z,30.3085,-88.1395,2.253,5.81,1111122 
DISL,ioos:station:DISL:CATA:1,2015-08-03T12:30:00Z,30.3085,-88.1395,2.249,5.62,1111122 
DISL,ioos:station:DISL:CATA:1,2015-08-03T13:00:00Z,30.3085,-88.1395,2.253,5.64,1111122 
DISL,ioos:station:DISL:CATA:1,2015-08-03T13:30:00Z,30.3085,-88.1395,2.269,5.66,1111122 
DISL,ioos:station:DISL:CATA:1,2015-08-03T14:00:00Z,30.3085,-88.1395,2.293,4.82,1111122 
DISL,ioos:station:DISL:CATA:1,2015-08-03T14:30:00Z,30.3085,-88.1395,2.312,3.08,1111122 
DISL,ioos:station:DISL:CATA:1,2015-08-03T15:00:00Z,30.3085,-88.1395,2.325,2.78,1111122 
DISL,ioos:station:DISL:CATA:1,2015-08-03T15:30:00Z,30.3085,-88.1395,2.343,3.0,1111122 
DISL,ioos:station:DISL:CATA:1,2015-08-03T16:00:00Z,30.3085,-88.1395,2.361,4.77,1111122 
DISL,ioos:station:DISL:CATA:1,2015-08-03T16:30:00Z,30.3085,-88.1395,2.374,5.72,1111122 
DISL,ioos:station:DISL:CATA:1,2015-08-03T17:00:00Z,30.3085,-88.1395,2.365,6.2,1111122 
DISL,ioos:station:DISL:CATA:1,2015-08-03T17:30:00Z,30.3085,-88.1395,2.371,6.44,1111122 
DISL,ioos:station:DISL:CATA:1,2015-08-03T18:00:00Z,30.3085,-88.1395,2.376,6.62,1111122 
DISL,ioos:station:DISL:CATA:1,2015-08-03T18:30:00Z,30.3085,-88.1395,2.393,6.84,1111122 
DISL,ioos:station:DISL:CATA:1,2015-08-03T19:00:00Z,30.3085,-88.1395,2.419,7.03,1111122 
DISL,ioos:station:DISL:CATA:1,2015-08-03T19:30:00Z,30.3085,-88.1395,2.41,7.49,1111122 
DISL,ioos:station:DISL:CATA:1,2015-08-03T20:00:00Z,30.3085,-88.1395,2.413,7.65,1111122 
DISL,ioos:station:DISL:CATA:1,2015-08-03T20:30:00Z,30.3085,-88.1395,2.422,7.55,1111122 
DISL,ioos:station:DISL:CATA:1,2015-08-03T21:00:00Z,30.3085,-88.1395,2.409,7.32,1111122 
DISL,ioos:station:DISL:CATA:1,2015-08-03T21:30:00Z,30.3085,-88.1395,2.398,7.19,1111122 
DISL,ioos:station:DISL:CATA:1,2015-08-03T22:00:00Z,30.3085,-88.1395,2.379,7.19,1111122 
DISL,ioos:station:DISL:CATA:1,2015-08-03T22:30:00Z,30.3085,-88.1395,2.357,7.11,1111122 
DISL,ioos:station:DISL:CATA:1,2015-08-03T23:00:00Z,30.3085,-88.1395,2.33,6.98,1111122 
DISL,ioos:station:DISL:CATA:1,2015-08-03T23:30:00Z,30.3085,-88.1395,2.296,6.73,1111122 
DISL,ioos:station:DISL:CATA:1,2015-08-04T00:00:00Z,30.3085,-88.1395,2.257,6.02,1111122 
DISL,ioos:station:DISL:CATA:1,2015-08-04T00:30:00Z,30.3085,-88.1395,2.23,6.53,1111122 
DISL,ioos:station:DISL:CATA:1,2015-08-04T01:00:00Z,30.3085,-88.1395,2.204,6.43,1111122 
DISL,ioos:station:DISL:CATA:1,2015-08-04T01:30:00Z,30.3085,-88.1395,2.181,6.21,1111122 
DISL,ioos:station:DISL:CATA:1,2015-08-04T02:00:00Z,30.3085,-88.1395,2.15,6.4,1111122 
DISL,ioos:station:DISL:CATA:1,2015-08-04T02:30:00Z,30.3085,-88.1395,2.139,6.01,1111122 
DISL,ioos:station:DISL:CATA:1,2015-08-04T03:00:00Z,30.3085,-88.1395,2.137,4.96,1111122 
DISL,ioos:station:DISL:CATA:1,2015-08-04T03:30:00Z,30.3085,-88.1395,2.155,3.74,1111122 
DISL,ioos:station:DISL:CATA:1,2015-08-04T04:00:00Z,30.3085,-88.1395,2.179,3.95,1111122 
DISL,ioos:station:DISL:CATA:1,2015-08-04T04:30:00Z,30.3085,-88.1395,2.181,3.4,1111122 
DISL,ioos:station:DISL:CATA:1,2015-08-04T05:00:00Z,30.3085,-88.1395,2.174,2.84,1111122 
DISL,ioos:station:DISL:CATA:1,2015-08-04T05:30:00Z,30.3085,-88.1395,2.179,3.9,1111122 
DISL,ioos:station:DISL:CATA:1,2015-08-04T06:00:00Z,30.3085,-88.1395,2.185,4.12,1111122 
DISL,ioos:station:DISL:CATA:1,2015-08-04T06:30:00Z,30.3085,-88.1395,2.184,4.55,1111122 
DISL,ioos:station:DISL:CATA:1,2015-08-04T07:00:00Z,30.3085,-88.1395,2.184,4.63,1111122 
DISL,ioos:station:DISL:CATA:1,2015-08-04T07:30:00Z,30.3085,-88.1395,2.197,4.35,1111122 
DISL,ioos:station:DISL:CATA:1,2015-08-04T08:00:00Z,30.3085,-88.1395,2.19,4.88,1111122 
DISL,ioos:station:DISL:CATA:1,2015-08-04T08:30:00Z,30.3085,-88.1395,2.197,5.32,1111122 
DISL,ioos:station:DISL:CATA:1,2015-08-04T09:00:00Z,30.3085,-88.1395,2.214,5.42,1111122 
DISL,ioos:station:DISL:CATA:1,2015-08-04T09:30:00Z,30.3085,-88.1395,2.219,5.37,1111122 
DISL,ioos:station:DISL:CATA:1,2015-08-04T10:00:00Z,30.3085,-88.1395,2.226,5.47,1111122 
DISL,ioos:station:DISL:CATA:1,2015-08-04T10:30:00Z,30.3085,-88.1395,2.222,5.29,1111122 
DISL,ioos:station:DISL:CATA:1,2015-08-04T11:00:00Z,30.3085,-88.1395,2.226,5.2,1111122 
DISL,ioos:station:DISL:CATA:1,2015-08-04T11:30:00Z,30.3085,-88.1395,2.216,5.1,1111122 
DISL,ioos:station:DISL:CATA:1,2015-08-04T12:00:00Z,30.3085,-88.1395,2.212,4.97,1111122 
DISL,ioos:station:DISL:CATA:1,2015-08-04T12:30:00Z,30.3085,-88.1395,2.211,4.59,1111122 
DISL,ioos:station:DISL:CATA:1,2015-08-04T13:00:00Z,30.3085,-88.1395,2.203,4.4,1111122 
DISL,ioos:station:DISL:CATA:1,2015-08-04T13:30:00Z,30.3085,-88.1395,2.196,3.11,1111122 
DISL,ioos:station:DISL:CATA:1,2015-08-04T14:00:00Z,30.3085,-88.1395,2.196,4.62,1111122 
DISL,ioos:station:DISL:CATA:1,2015-08-04T14:30:00Z,30.3085,-88.1395,2.194,4.64,1111122 
DISL,ioos:station:DISL:CATA:1,2015-08-04T15:00:00Z,30.3085,-88.1395,2.202,3.52,1111122 
DISL,ioos:station:DISL:CATA:1,2015-08-04T15:30:00Z,30.3085,-88.1395,2.223,3.49,1111122 
DISL,ioos:station:DISL:CATA:1,2015-08-04T16:00:00Z,30.3085,-88.1395,2.238,4.29,1111122 
DISL,ioos:station:DISL:CATA:1,2015-08-04T16:30:00Z,30.3085,-88.1395,2.247,5.56,1111122 
DISL,ioos:station:DISL:CATA:1,2015-08-04T17:00:00Z,30.3085,-88.1395,2.262,6.88,1111122 
DISL,ioos:station:DISL:CATA:1,2015-08-04T17:30:00Z,30.3085,-88.1395,2.271,6.95,1111122 
DISL,ioos:station:DISL:CATA:1,2015-08-04T18:00:00Z,30.3085,-88.1395,2.275,7.36,1111122 
DISL,ioos:station:DISL:CATA:1,2015-08-04T18:30:00Z,30.3085,-88.1395,2.267,7.54,1111122 
DISL,ioos:station:DISL:CATA:1,2015-08-04T19:00:00Z,30.3085,-88.1395,2.266,7.52,1111122 
DISL,ioos:station:DISL:CATA:1,2015-08-04T19:30:00Z,30.3085,-88.1395,2.274,7.63,1111122 
DISL,ioos:station:DISL:CATA:1,2015-08-04T20:00:00Z,30.3085,-88.1395,2.246,7.59,1111122 
DISL,ioos:station:DISL:CATA:1,2015-08-04T20:30:00Z,30.3085,-88.1395,2.231,7.4,1111122 
DISL,ioos:station:DISL:CATA:1,2015-08-04T21:00:00Z,30.3085,-88.1395,2.229,7.34,1111122 
DISL,ioos:station:DISL:CATA:1,2015-08-04T21:30:00Z,30.3085,-88.1395,2.248,6.71,1111122 
DISL,ioos:station:DISL:CATA:1,2015-08-04T22:00:00Z,30.3085,-88.1395,2.265,6.46,1111122 
DISL,ioos:station:DISL:CATA:1,2015-08-04T22:30:00Z,30.3085,-88.1395,2.264,6.0,1111122 
DISL,ioos:station:DISL:CATA:1,2015-08-04T23:00:00Z,30.3085,-88.1395,2.262,6.19,1111122 
DISL,ioos:station:DISL:CATA:1,2015-08-04T23:30:00Z,30.3085,-88.1395,2.251,6.88,1111122 
DISL,ioos:station:DISL:CATA:1,2015-08-05T00:00:00Z,30.3085,-88.1395,2.237,7.43,1111122 
DISL,ioos:station:DISL:CATA:1,2015-08-05T00:30:00Z,30.3085,-88.1395,2.231,7.36,1111122 
DISL,ioos:station:DISL:CATA:1,2015-08-05T01:00:00Z,30.3085,-88.1395,2.242,7.2,1111122 
DISL,ioos:station:DISL:CATA:1,2015-08-05T01:30:00Z,30.3085,-88.1395,2.233,6.65,1111122 
DISL,ioos:station:DISL:CATA:1,2015-08-05T02:00:00Z,30.3085,-88.1395,2.214,6.0,1111122 
DISL,ioos:station:DISL:CATA:1,2015-08-05T02:30:00Z,30.3085,-88.1395,2.21,5.91,1111122 
DISL,ioos:station:DISL:CATA:1,2015-08-05T03:00:00Z,30.3085,-88.1395,2.222,6.25,1111122 
DISL,ioos:station:DISL:CATA:1,2015-08-05T03:30:00Z,30.3085,-88.1395,2.237,6.43,1111122 
DISL,ioos:station:DISL:CATA:1,2015-08-05T04:00:00Z,30.3085,-88.1395,2.235,6.45,1111122 
DISL,ioos:station:DISL:CATA:1,2015-08-05T04:30:00Z,30.3085,-88.1395,2.246,6.22,1111122 
DISL,ioos:station:DISL:CATA:1,2015-08-05T05:00:00Z,30.3085,-88.1395,2.258,6.11,1111122 
DISL,ioos:station:DISL:CATA:1,2015-08-05T05:30:00Z,30.3085,-88.1395,2.233,6.03,1111122 
DISL,ioos:station:DISL:CATA:1,2015-08-05T06:00:00Z,30.3085,-88.1395,2.256,6.1,1111122 
DISL,ioos:station:DISL:CATA:1,2015-08-05T06:30:00Z,30.3085,-88.1395,2.269,5.98,1111122 
DISL,ioos:station:DISL:CATA:1,2015-08-05T07:00:00Z,30.3085,-88.1395,2.278,5.9,1111122 
DISL,ioos:station:DISL:CATA:1,2015-08-05T07:30:00Z,30.3085,-88.1395,2.288,5.87,1111122 
DISL,ioos:station:DISL:CATA:1,2015-08-05T08:00:00Z,30.3085,-88.1395,2.29,5.83,1111122 
DISL,ioos:station:DISL:CATA:1,2015-08-05T08:30:00Z,30.3085,-88.1395,2.303,5.83,1111122 
DISL,ioos:station:DISL:CATA:1,2015-08-05T09:00:00Z,30.3085,-88.1395,2.311,5.87,1111122 
DISL,ioos:station:DISL:CATA:1,2015-08-05T09:30:00Z,30.3085,-88.1395,2.332,5.8,1111122 
DISL,ioos:station:DISL:CATA:1,2015-08-05T10:00:00Z,30.3085,-88.1395,2.282,5.88,1111122 
DISL,ioos:station:DISL:CATA:1,2015-08-05T10:30:00Z,30.3085,-88.1395,2.343,5.84,1111122 
DISL,ioos:station:DISL:CATA:1,2015-08-05T11:00:00Z,30.3085,-88.1395,2.326,5.68,1111122 
DISL,ioos:station:DISL:CATA:1,2015-08-05T11:30:00Z,30.3085,-88.1395,2.281,5.54,1111122 
DISL,ioos:station:DISL:CATA:1,2015-08-05T12:00:00Z,30.3085,-88.1395,2.248,5.86,1111122 
DISL,ioos:station:DISL:CATA:1,2015-08-05T12:30:00Z,30.3085,-88.1395,2.198,5.85,1111122 
DISL,ioos:station:DISL:CATA:1,2015-08-05T13:00:00Z,30.3085,-88.1395,2.243,5.7,1111122 
DISL,ioos:station:DISL:CATA:1,2015-08-05T13:30:00Z,30.3085,-88.1395,2.27,5.81,1111122 
DISL,ioos:station:DISL:CATA:1,2015-08-05T14:00:00Z,30.3085,-88.1395,2.255,5.64,1111122 
DISL,ioos:station:DISL:CATA:1,2015-08-05T14:30:00Z,30.3085,-88.1395,2.193,5.68,1111122 
DISL,ioos:station:DISL:CATA:1,2015-08-05T15:00:00Z,30.3085,-88.1395,2.176,5.2,1111122 
DISL,ioos:station:DISL:CATA:1,2015-08-05T15:30:00Z,30.3085,-88.1395,2.172,5.54,1111122 
DISL,ioos:station:DISL:CATA:1,2015-08-05T16:00:00Z,30.3085,-88.1395,2.165,5.28,1111122 
DISL,ioos:station:DISL:CATA:1,2015-08-05T16:30:00Z,30.3085,-88.1395,2.183,4.81,1111122 
DISL,ioos:station:DISL:CATA:1,2015-08-05T17:00:00Z,30.3085,-88.1395,2.183,4.69,1111122 
DISL,ioos:station:DISL:CATA:1,2015-08-05T17:30:00Z,30.3085,-88.1395,2.172,4.65,1111122 
DISL,ioos:station:DISL:CATA:1,2015-08-05T18:00:00Z,30.3085,-88.1395,2.175,5.39,1111122 
DISL,ioos:station:DISL:CATA:1,2015-08-05T18:30:00Z,30.3085,-88.1395,2.156,6.01,1111122 
DISL,ioos:station:DISL:CATA:1,2015-08-05T19:00:00Z,30.3085,-88.1395,2.134,6.53,1111122 
DISL,ioos:station:DISL:CATA:1,2015-08-05T19:30:00Z,30.3085,-88.1395,2.151,6.44,1111122 
DISL,ioos:station:DISL:CATA:1,2015-08-05T20:00:00Z,30.3085,-88.1395,2.148,6.07,1111122 
DISL,ioos:station:DISL:CATA:1,2015-08-05T20:30:00Z,30.3085,-88.1395,2.169,6.05,1111122 
DISL,ioos:station:DISL:CATA:1,2015-08-05T21:00:00Z,30.3085,-88.1395,2.176,6.15,1111122 
DISL,ioos:station:DISL:CATA:1,2015-08-05T21:30:00Z,30.3085,-88.1395,2.193,6.18,1111122 
DISL,ioos:station:DISL:CATA:1,2015-08-05T22:00:00Z,30.3085,-88.1395,2.18,6.21,1111122 
DISL,ioos:station:DISL:CATA:1,2015-08-05T22:30:00Z,30.3085,-88.1395,2.204,6.26,1111122 
DISL,ioos:station:DISL:CATA:1,2015-08-05T23:00:00Z,30.3085,-88.1395,2.203,6.25,1111122 
DISL,ioos:station:DISL:CATA:1,2015-08-05T23:30:00Z,30.3085,-88.1395,2.218,6.15,1111122 
DISL,ioos:station:DISL:CATA:1,2015-08-06T00:00:00Z,30.3085,-88.1395,2.214,6.1,1111122 
DISL,ioos:station:DISL:CATA:1,2015-08-06T00:30:00Z,30.3085,-88.1395,2.184,6.08,1111122 
DISL,ioos:station:DISL:CATA:1,2015-08-06T01:00:00Z,30.3085,-88.1395,2.168,6.07,1111122 
DISL,ioos:station:DISL:CATA:1,2015-08-06T01:30:00Z,30.3085,-88.1395,2.171,5.92,1111122 
DISL,ioos:station:DISL:CATA:1,2015-08-06T02:00:00Z,30.3085,-88.1395,2.173,5.95,1111122 
DISL,ioos:station:DISL:CATA:1,2015-08-06T02:30:00Z,30.3085,-88.1395,2.187,5.88,1111122 
DISL,ioos:station:DISL:CATA:1,2015-08-06T03:00:00Z,30.3085,-88.1395,2.196,5.81,1111122 
DISL,ioos:station:DISL:CATA:1,2015-08-06T03:30:00Z,30.3085,-88.1395,2.208,5.94,1111122 
DISL,ioos:station:DISL:CATA:1,2015-08-06T04:00:00Z,30.3085,-88.1395,2.224,5.95,1111122 
DISL,ioos:station:DISL:CATA:1,2015-08-06T04:30:00Z,30.3085,-88.1395,2.228,5.98,1111122 
DISL,ioos:station:DISL:CATA:1,2015-08-06T05:00:00Z,30.3085,-88.1395,2.259,5.93,1111122 
DISL,ioos:station:DISL:CATA:1,2015-08-06T05:30:00Z,30.3085,-88.1395,2.284,5.93,1111122 
DISL,ioos:station:DISL:CATA:1,2015-08-06T06:00:00Z,30.3085,-88.1395,2.298,5.93,1111122 
DISL,ioos:station:DISL:CATA:1,2015-08-06T06:30:00Z,30.3085,-88.1395,2.305,6.06,1111122 
DISL,ioos:station:DISL:CATA:1,2015-08-06T07:00:00Z,30.3085,-88.1395,2.319,6.07,1111122 
DISL,ioos:station:DISL:CATA:1,2015-08-06T07:30:00Z,30.3085,-88.1395,2.323,6.05,1111122 
DISL,ioos:station:DISL:CATA:1,2015-08-06T08:00:00Z,30.3085,-88.1395,2.331,6.04,1111122 
DISL,ioos:station:DISL:CATA:1,2015-08-06T08:30:00Z,30.3085,-88.1395,2.341,6.0,1111122 
DISL,ioos:station:DISL:CATA:1,2015-08-06T09:00:00Z,30.3085,-88.1395,2.337,5.91,1111122 
DISL,ioos:station:DISL:CATA:1,2015-08-06T09:30:00Z,30.3085,-88.1395,2.327,5.84,1111122 
DISL,ioos:station:DISL:CATA:1,2015-08-06T10:00:00Z,30.3085,-88.1395,2.311,5.78,1111122 
DISL,ioos:station:DISL:CATA:1,2015-08-06T10:30:00Z,30.3085,-88.1395,2.301,5.82,1111122 
DISL,ioos:station:DISL:CATA:1,2015-08-06T11:00:00Z,30.3085,-88.1395,2.301,5.63,1111122 
DISL,ioos:station:DISL:CATA:1,2015-08-06T11:30:00Z,30.3085,-88.1395,2.314,5.51,1111122 
DISL,ioos:station:DISL:CATA:1,2015-08-06T12:00:00Z,30.3085,-88.1395,2.297,5.66,1111122 
DISL,ioos:station:DISL:CATA:1,2015-08-06T12:30:00Z,30.3085,-88.1395,2.272,5.76,1111122 
DISL,ioos:station:DISL:CATA:1,2015-08-06T13:00:00Z,30.3085,-88.1395,2.274,5.77,1111122 
DISL,ioos:station:DISL:CATA:1,2015-08-06T13:30:00Z,30.3085,-88.1395,2.269,5.74,1111122 
DISL,ioos:station:DISL:CATA:1,2015-08-06T14:00:00Z,30.3085,-88.1395,2.257,5.61,1111122 
DISL,ioos:station:DISL:CATA:1,2015-08-06T14:30:00Z,30.3085,-88.1395,2.236,5.54,1111122 
DISL,ioos:station:DISL:CATA:1,2015-08-06T15:00:00Z,30.3085,-88.1395,2.206,5.78,1111122 
DISL,ioos:station:DISL:CATA:1,2015-08-06T15:30:00Z,30.3085,-88.1395,2.184,5.95,1111122 